Time,TemperatureF,DewpointF,PressureIn,WindDirection,WindDirectionDegrees,WindSpeedMPH,WindSpeedGustMPH,Humidity,HourlyPrecipIn,Conditions,Clouds,dailyrainin,SoftwareType,DateUTC
2013-04-10 00:02:00,50.0,-99.9,-100.00,SW,225,1.0,6.0,-999,-99.99,,,-99.99,,2013-04-10 07:02:00,
2013-04-10 00:12:00,50.0,-99.9,-100.00,SW,225,1.0,6.0,-999,-99.99,,,-99.99,,2013-04-10 07:12:00,
2013-04-10 00:23:00,50.0,-99.9,-100.00,SW,225,1.0,6.0,-999,-99.99,,,-99.99,,2013-04-10 07:23:00,
2013-04-10 00:33:00,50.0,-99.9,-100.00,SW,225,1.0,4.0,-999,-99.99,,,-99.99,,2013-04-10 07:33:00,
2013-04-10 00:43:00,50.0,-99.9,-100.00,SW,225,1.0,4.0,-999,-99.99,,,-99.99,,2013-04-10 07:43:00,
2013-04-10 00:52:00,50.0,-99.9,-100.00,SW,225,3.0,4.0,-999,-99.99,,,-99.99,,2013-04-10 07:52:00,
2013-04-10 01:02:00,50.0,-99.9,-100.00,SW,225,3.0,4.0,-999,-99.99,,,-99.99,,2013-04-10 08:02:00,
2013-04-10 01:12:00,50.0,-99.9,-100.00,SW,225,3.0,4.0,-999,-99.99,,,-99.99,,2013-04-10 08:12:00,
2013-04-10 01:22:00,50.0,-99.9,-100.00,SW,225,5.0,6.0,-999,-99.99,,,-99.99,,2013-04-10 08:22:00,
2013-04-10 01:32:00,50.0,-99.9,-100.00,SW,225,6.0,7.0,-999,-99.99,,,-99.99,,2013-04-10 08:32:00,
2013-04-10 01:43:00,50.0,-99.9,-100.00,SW,225,6.0,7.0,-999,-99.99,,,-99.99,,2013-04-10 08:43:00,
2013-04-10 01:52:00,50.0,-99.9,-100.00,SW,225,8.0,9.0,-999,-99.99,,,-99.99,,2013-04-10 08:52:00,
2013-04-10 02:02:00,50.0,-99.9,-100.00,SW,225,6.0,9.0,-999,-99.99,,,-99.99,,2013-04-10 09:02:00,
2013-04-10 02:13:00,50.0,-99.9,-100.00,SW,225,6.0,9.0,-999,-99.99,,,-99.99,,2013-04-10 09:13:00,
2013-04-10 02:23:00,50.0,-99.9,-100.00,SW,225,5.0,9.0,-999,-99.99,,,-99.99,,2013-04-10 09:23:00,
2013-04-10 02:33:00,50.0,-99.9,-100.00,South,180,6.0,11.0,-999,-99.99,,,-99.99,,2013-04-10 09:33:00,
2013-04-10 02:43:00,50.0,-99.9,-100.00,South,180,6.0,11.0,-999,-99.99,,,-99.99,,2013-04-10 09:43:00,
2013-04-10 02:53:00,50.0,-99.9,-100.00,SW,225,0.0,11.0,-999,-99.99,,,-99.99,,2013-04-10 09:53:00,
2013-04-10 03:03:00,50.0,-99.9,-100.00,SW,225,7.0,9.0,-999,-99.99,,,-99.99,,2013-04-10 10:03:00,
2013-04-10 03:13:00,50.0,-99.9,-100.00,SW,225,7.0,9.0,-999,-99.99,,,-99.99,,2013-04-10 10:13:00,
2013-04-10 03:23:00,50.0,-99.9,-100.00,West,270,9.0,14.0,-999,-99.99,,,-99.99,,2013-04-10 10:23:00,
2013-04-10 03:33:00,50.0,-99.9,-100.00,SW,225,11.0,14.0,-999,-99.99,,,-99.99,,2013-04-10 10:33:00,
2013-04-10 03:43:00,50.0,-99.9,-100.00,SW,225,11.0,14.0,-999,-99.99,,,-99.99,,2013-04-10 10:43:00,
2013-04-10 03:53:00,49.0,-99.9,-100.00,West,270,11.0,16.0,-999,-99.99,,,-99.99,,2013-04-10 10:53:00,
2013-04-10 04:03:00,48.0,-99.9,-100.00,SW,225,9.0,17.0,-999,-99.99,,,-99.99,,2013-04-10 11:03:00,
2013-04-10 04:12:00,48.0,-99.9,-100.00,SW,225,9.0,17.0,-999,-99.99,,,-99.99,,2013-04-10 11:12:00,
2013-04-10 04:22:00,48.0,-99.9,-100.00,SW,225,9.0,17.0,-999,-99.99,,,-99.99,,2013-04-10 11:22:00,
2013-04-10 04:33:00,48.0,-99.9,-100.00,SW,225,11.0,14.0,-999,-99.99,,,-99.99,,2013-04-10 11:33:00,
2013-04-10 04:42:00,48.0,-99.9,-100.00,SW,225,11.0,14.0,-999,-99.99,,,-99.99,,2013-04-10 11:42:00,
2013-04-10 04:53:00,48.0,-99.9,-100.00,SW,225,9.0,14.0,-999,-99.99,,,-99.99,,2013-04-10 11:53:00,
2013-04-10 05:03:00,48.0,-99.9,-100.00,West,270,8.0,12.0,-999,-99.99,,,-99.99,,2013-04-10 12:03:00,
2013-04-10 05:12:00,48.0,-99.9,-100.00,West,270,8.0,12.0,-999,-99.99,,,-99.99,,2013-04-10 12:12:00,
2013-04-10 05:23:00,48.0,-99.9,-100.00,SW,225,11.0,14.0,-999,-99.99,,,-99.99,,2013-04-10 12:23:00,
2013-04-10 05:33:00,48.0,-99.9,-100.00,SW,225,12.0,17.0,-999,-99.99,,,-99.99,,2013-04-10 12:33:00,
2013-04-10 05:43:00,48.0,-99.9,-100.00,SW,225,12.0,17.0,-999,-99.99,,,-99.99,,2013-04-10 12:43:00,
2013-04-10 05:52:00,49.0,-99.9,-100.00,SW,225,15.0,19.0,-999,-99.99,,,-99.99,,2013-04-10 12:52:00,
2013-04-10 06:02:00,49.0,-99.9,-100.00,SW,225,16.0,22.0,-999,-99.99,,,-99.99,,2013-04-10 13:02:00,
2013-04-10 06:12:00,49.0,-99.9,-100.00,SW,225,16.0,22.0,-999,-99.99,,,-99.99,,2013-04-10 13:12:00,
2013-04-10 06:23:00,50.0,-99.9,-100.00,SW,225,19.0,24.0,-999,-99.99,,,-99.99,,2013-04-10 13:23:00,
2013-04-10 06:33:00,50.0,-99.9,-100.00,SW,225,19.0,27.0,-999,-99.99,,,-99.99,,2013-04-10 13:33:00,
2013-04-10 06:43:00,50.0,-99.9,-100.00,SW,225,19.0,27.0,-999,-99.99,,,-99.99,,2013-04-10 13:43:00,
2013-04-10 06:53:00,50.0,-99.9,-100.00,SW,225,19.0,27.0,-999,-99.99,,,-99.99,,2013-04-10 13:53:00,
2013-04-10 07:02:00,50.0,-99.9,-100.00,SW,225,18.0,27.0,-999,-99.99,,,-99.99,,2013-04-10 14:02:00,
2013-04-10 07:13:00,50.0,-99.9,-100.00,SW,225,18.0,27.0,-999,-99.99,,,-99.99,,2013-04-10 14:13:00,
2013-04-10 07:22:00,50.0,-99.9,-100.00,SW,225,19.0,27.0,-999,-99.99,,,-99.99,,2013-04-10 14:22:00,
2013-04-10 07:33:00,50.0,-99.9,-100.00,SW,225,21.0,27.0,-999,-99.99,,,-99.99,,2013-04-10 14:33:00,
2013-04-10 07:42:00,50.0,-99.9,-100.00,SW,225,21.0,27.0,-999,-99.99,,,-99.99,,2013-04-10 14:42:00,
2013-04-10 07:52:00,50.0,-99.9,-100.00,SW,225,22.0,28.0,-999,-99.99,,,-99.99,,2013-04-10 14:52:00,
2013-04-10 08:03:00,50.0,-99.9,-100.00,West,270,23.0,29.0,-999,-99.99,,,-99.99,,2013-04-10 15:03:00,
2013-04-10 08:12:00,50.0,-99.9,-100.00,West,270,23.0,29.0,-999,-99.99,,,-99.99,,2013-04-10 15:12:00,
2013-04-10 08:23:00,50.0,-99.9,-100.00,West,270,23.0,29.0,-999,-99.99,,,-99.99,,2013-04-10 15:23:00,
2013-04-10 08:33:00,50.0,-99.9,-100.00,West,270,32.0,34.0,-999,-99.99,,,-99.99,,2013-04-10 15:33:00,
2013-04-10 08:43:00,50.0,-99.9,-100.00,West,270,32.0,34.0,-999,-99.99,,,-99.99,,2013-04-10 15:43:00,
2013-04-10 08:53:00,50.0,-99.9,-100.00,West,270,29.0,35.0,-999,-99.99,,,-99.99,,2013-04-10 15:53:00,
2013-04-10 09:03:00,50.0,-99.9,-100.00,SW,225,25.0,36.0,-999,-99.99,,,-99.99,,2013-04-10 16:03:00,
2013-04-10 09:13:00,50.0,-99.9,-100.00,SW,225,25.0,36.0,-999,-99.99,,,-99.99,,2013-04-10 16:13:00,
2013-04-10 09:23:00,50.0,-99.9,-100.00,West,270,26.0,36.0,-999,-99.99,,,-99.99,,2013-04-10 16:23:00,
2013-04-10 09:34:00,50.0,-99.9,-100.00,West,270,28.0,37.0,-999,-99.99,,,-99.99,,2013-04-10 16:34:00,
2013-04-10 09:43:00,50.0,-99.9,-100.00,West,270,28.0,37.0,-999,-99.99,,,-99.99,,2013-04-10 16:43:00,
2013-04-10 09:53:00,50.0,-99.9,-100.00,West,270,29.0,37.0,-999,-99.99,,,-99.99,,2013-04-10 16:53:00,
2013-04-10 10:03:00,50.0,-99.9,-100.00,West,270,30.0,37.0,-999,-99.99,,,-99.99,,2013-04-10 17:03:00,
2013-04-10 10:13:00,50.0,-99.9,-100.00,West,270,30.0,37.0,-999,-99.99,,,-99.99,,2013-04-10 17:13:00,
2013-04-10 10:23:00,50.0,-99.9,-100.00,West,270,29.0,37.0,-999,-99.99,,,-99.99,,2013-04-10 17:23:00,
2013-04-10 10:34:00,50.0,-99.9,-100.00,West,270,31.0,37.0,-999,-99.99,,,-99.99,,2013-04-10 17:34:00,
2013-04-10 10:43:00,50.0,-99.9,-100.00,West,270,31.0,37.0,-999,-99.99,,,-99.99,,2013-04-10 17:43:00,
2013-04-10 10:53:00,50.0,-99.9,-100.00,West,270,29.0,37.0,-999,-99.99,,,-99.99,,2013-04-10 17:53:00,
2013-04-10 11:03:00,50.0,-99.9,-100.00,West,270,29.0,35.0,-999,-99.99,,,-99.99,,2013-04-10 18:03:00,
2013-04-10 11:12:00,50.0,-99.9,-100.00,West,270,29.0,35.0,-999,-99.99,,,-99.99,,2013-04-10 18:12:00,
2013-04-10 11:23:00,50.0,-99.9,-100.00,West,270,26.0,34.0,-999,-99.99,,,-99.99,,2013-04-10 18:23:00,
2013-04-10 11:33:00,51.0,-99.9,-100.00,West,270,24.0,30.0,-999,-99.99,,,-99.99,,2013-04-10 18:33:00,
2013-04-10 11:43:00,51.0,-99.9,-100.00,West,270,24.0,30.0,-999,-99.99,,,-99.99,,2013-04-10 18:43:00,
2013-04-10 11:53:00,51.0,-99.9,-100.00,NW,315,19.0,30.0,-999,-99.99,,,-99.99,,2013-04-10 18:53:00,
2013-04-10 12:03:00,51.0,-99.9,-100.00,NW,315,17.0,26.0,-999,-99.99,,,-99.99,,2013-04-10 19:03:00,
2013-04-10 12:13:00,51.0,-99.9,-100.00,NW,315,17.0,26.0,-999,-99.99,,,-99.99,,2013-04-10 19:13:00,
2013-04-10 12:22:00,51.0,-99.9,-100.00,NW,315,16.0,21.0,-999,-99.99,,,-99.99,,2013-04-10 19:22:00,
2013-04-10 12:34:00,51.0,-99.9,-100.00,NW,315,16.0,21.0,-999,-99.99,,,-99.99,,2013-04-10 19:34:00,
2013-04-10 12:42:00,51.0,-99.9,-100.00,NW,315,16.0,21.0,-999,-99.99,,,-99.99,,2013-04-10 19:42:00,
2013-04-10 12:53:00,51.0,-99.9,-100.00,NW,315,17.0,21.0,-999,-99.99,,,-99.99,,2013-04-10 19:53:00,
2013-04-10 13:03:00,52.0,-99.9,-100.00,NW,315,17.0,21.0,-999,-99.99,,,-99.99,,2013-04-10 20:03:00,
2013-04-10 13:12:00,52.0,-99.9,-100.00,NW,315,17.0,21.0,-999,-99.99,,,-99.99,,2013-04-10 20:12:00,
2013-04-10 13:24:00,52.0,-99.9,-100.00,NW,315,15.0,22.0,-999,-99.99,,,-99.99,,2013-04-10 20:24:00,
2013-04-10 13:33:00,52.0,-99.9,-100.00,NW,315,14.0,22.0,-999,-99.99,,,-99.99,,2013-04-10 20:33:00,
2013-04-10 13:43:00,52.0,-99.9,-100.00,NW,315,14.0,22.0,-999,-99.99,,,-99.99,,2013-04-10 20:43:00,
2013-04-10 13:53:00,51.0,-99.9,-100.00,NW,315,9.0,19.0,-999,-99.99,,,-99.99,,2013-04-10 20:53:00,
2013-04-10 14:03:00,52.0,-99.9,-100.00,NE,45,11.0,16.0,-999,-99.99,,,-99.99,,2013-04-10 21:03:00,
2013-04-10 14:13:00,52.0,-99.9,-100.00,NE,45,11.0,16.0,-999,-99.99,,,-99.99,,2013-04-10 21:13:00,
2013-04-10 14:22:00,51.0,-99.9,-100.00,NE,45,11.0,19.0,-999,-99.99,,,-99.99,,2013-04-10 21:22:00,
2013-04-10 14:33:00,50.0,-99.9,-100.00,NE,45,12.0,22.0,-999,-99.99,,,-99.99,,2013-04-10 21:33:00,
2013-04-10 14:43:00,50.0,-99.9,-100.00,NE,45,12.0,22.0,-999,-99.99,,,-99.99,,2013-04-10 21:43:00,
2013-04-10 14:53:00,51.0,-99.9,-100.00,NE,45,14.0,22.0,-999,-99.99,,,-99.99,,2013-04-10 21:53:00,
2013-04-10 15:03:00,51.0,-99.9,-100.00,NE,45,13.0,18.0,-999,-99.99,,,-99.99,,2013-04-10 22:03:00,
2013-04-10 15:13:00,51.0,-99.9,-100.00,NE,45,13.0,18.0,-999,-99.99,,,-99.99,,2013-04-10 22:13:00,
2013-04-10 15:23:00,52.0,-99.9,-100.00,NE,45,9.0,17.0,-999,-99.99,,,-99.99,,2013-04-10 22:23:00,
2013-04-10 15:34:00,51.0,-99.9,-100.00,NE,45,12.0,19.0,-999,-99.99,,,-99.99,,2013-04-10 22:34:00,
2013-04-10 15:43:00,51.0,-99.9,-100.00,NE,45,12.0,19.0,-999,-99.99,,,-99.99,,2013-04-10 22:43:00,
2013-04-10 15:53:00,52.0,-99.9,-100.00,NE,45,16.0,21.0,-999,-99.99,,,-99.99,,2013-04-10 22:53:00,
2013-04-10 16:03:00,52.0,-99.9,-100.00,NE,45,11.0,21.0,-999,-99.99,,,-99.99,,2013-04-10 23:03:00,
2013-04-10 16:12:00,52.0,-99.9,-100.00,NE,45,11.0,21.0,-999,-99.99,,,-99.99,,2013-04-10 23:12:00,
2013-04-10 16:23:00,54.0,-99.9,-100.00,NE,45,11.0,19.0,-999,-99.99,,,-99.99,,2013-04-10 23:23:00,
2013-04-10 16:33:00,54.0,-99.9,-100.00,NE,45,12.0,17.0,-999,-99.99,,,-99.99,,2013-04-10 23:33:00,
2013-04-10 16:43:00,54.0,-99.9,-100.00,NE,45,12.0,17.0,-999,-99.99,,,-99.99,,2013-04-10 23:43:00,
2013-04-10 16:53:00,54.0,-99.9,-100.00,NE,45,11.0,17.0,-999,-99.99,,,-99.99,,2013-04-10 23:53:00,
2013-04-10 17:02:00,54.0,-99.9,-100.00,NE,45,9.0,17.0,-999,-99.99,,,-99.99,,2013-04-11 00:02:00,
2013-04-10 17:13:00,54.0,-99.9,-100.00,NE,45,9.0,17.0,-999,-99.99,,,-99.99,,2013-04-11 00:13:00,
2013-04-10 17:23:00,54.0,-99.9,-100.00,North,0,9.0,15.0,-999,-99.99,,,-99.99,,2013-04-11 00:23:00,
2013-04-10 17:32:00,54.0,-99.9,-100.00,NE,45,9.0,14.0,-999,-99.99,,,-99.99,,2013-04-11 00:32:00,
2013-04-10 17:43:00,54.0,-99.9,-100.00,NE,45,9.0,14.0,-999,-99.99,,,-99.99,,2013-04-11 00:43:00,
2013-04-10 17:53:00,54.0,-99.9,-100.00,NE,45,14.0,17.0,-999,-99.99,,,-99.99,,2013-04-11 00:53:00,
2013-04-10 18:02:00,53.0,-99.9,-100.00,NE,45,11.0,19.0,-999,-99.99,,,-99.99,,2013-04-11 01:02:00,
2013-04-10 18:13:00,53.0,-99.9,-100.00,NE,45,11.0,19.0,-999,-99.99,,,-99.99,,2013-04-11 01:13:00,
2013-04-10 18:22:00,52.0,-99.9,-100.00,North,0,12.0,19.0,-999,-99.99,,,-99.99,,2013-04-11 01:22:00,
2013-04-10 18:33:00,52.0,-99.9,-100.00,NE,45,12.0,17.0,-999,-99.99,,,-99.99,,2013-04-11 01:33:00,
2013-04-10 18:42:00,52.0,-99.9,-100.00,NE,45,12.0,17.0,-999,-99.99,,,-99.99,,2013-04-11 01:42:00,
2013-04-10 18:53:00,51.0,-99.9,-100.00,NE,45,12.0,17.0,-999,-99.99,,,-99.99,,2013-04-11 01:53:00,
2013-04-10 19:03:00,51.0,-99.9,-100.00,NE,45,10.0,16.0,-999,-99.99,,,-99.99,,2013-04-11 02:03:00,
2013-04-10 19:13:00,51.0,-99.9,-100.00,NE,45,10.0,16.0,-999,-99.99,,,-99.99,,2013-04-11 02:13:00,
2013-04-10 19:22:00,51.0,-99.9,-100.00,North,0,12.0,16.0,-999,-99.99,,,-99.99,,2013-04-11 02:22:00,
2013-04-10 19:32:00,51.0,-99.9,-100.00,NE,45,9.0,16.0,-999,-99.99,,,-99.99,,2013-04-11 02:32:00,
2013-04-10 19:42:00,51.0,-99.9,-100.00,NE,45,9.0,16.0,-999,-99.99,,,-99.99,,2013-04-11 02:42:00,
2013-04-10 19:53:00,50.0,-99.9,-100.00,NE,45,10.0,16.0,-999,-99.99,,,-99.99,,2013-04-11 02:53:00,
2013-04-10 20:03:00,50.0,-99.9,-100.00,NE,45,6.0,14.0,-999,-99.99,,,-99.99,,2013-04-11 03:03:00,
2013-04-10 20:12:00,50.0,-99.9,-100.00,NE,45,6.0,14.0,-999,-99.99,,,-99.99,,2013-04-11 03:12:00,
2013-04-10 20:22:00,49.0,-99.9,-100.00,NE,45,11.0,14.0,-999,-99.99,,,-99.99,,2013-04-11 03:22:00,
2013-04-10 20:33:00,49.0,-99.9,-100.00,North,0,11.0,16.0,-999,-99.99,,,-99.99,,2013-04-11 03:33:00,
2013-04-10 20:43:00,49.0,-99.9,-100.00,North,0,11.0,16.0,-999,-99.99,,,-99.99,,2013-04-11 03:43:00,
2013-04-10 20:54:00,49.0,-99.9,-100.00,NE,45,11.0,16.0,-999,-99.99,,,-99.99,,2013-04-11 03:54:00,
2013-04-10 21:03:00,49.0,-99.9,-100.00,NE,45,12.0,16.0,-999,-99.99,,,-99.99,,2013-04-11 04:03:00,
2013-04-10 21:13:00,49.0,-99.9,-100.00,NE,45,12.0,16.0,-999,-99.99,,,-99.99,,2013-04-11 04:13:00,
2013-04-10 21:23:00,49.0,-99.9,-100.00,NE,45,10.0,15.0,-999,-99.99,,,-99.99,,2013-04-11 04:23:00,
2013-04-10 21:33:00,49.0,-99.9,-100.00,North,0,12.0,15.0,-999,-99.99,,,-99.99,,2013-04-11 04:33:00,
2013-04-10 21:43:00,49.0,-99.9,-100.00,North,0,12.0,15.0,-999,-99.99,,,-99.99,,2013-04-11 04:43:00,
2013-04-10 21:53:00,49.0,-99.9,-100.00,NE,45,10.0,15.0,-999,-99.99,,,-99.99,,2013-04-11 04:53:00,
2013-04-10 22:03:00,48.0,-99.9,-100.00,NE,45,6.0,15.0,-999,-99.99,,,-99.99,,2013-04-11 05:03:00,
2013-04-10 22:13:00,48.0,-99.9,-100.00,NE,45,6.0,15.0,-999,-99.99,,,-99.99,,2013-04-11 05:13:00,
2013-04-10 22:23:00,48.0,-99.9,-100.00,NE,45,6.0,11.0,-999,-99.99,,,-99.99,,2013-04-11 05:23:00,
2013-04-10 22:32:00,48.0,-99.9,-100.00,East,90,2.0,10.0,-999,-99.99,,,-99.99,,2013-04-11 05:32:00,
2013-04-10 22:42:00,48.0,-99.9,-100.00,East,90,2.0,10.0,-999,-99.99,,,-99.99,,2013-04-11 05:42:00,
2013-04-10 22:52:00,48.0,-99.9,-100.00,NE,45,5.0,11.0,-999,-99.99,,,-99.99,,2013-04-11 05:52:00,
2013-04-10 23:02:00,48.0,-99.9,-100.00,NE,45,7.0,11.0,-999,-99.99,,,-99.99,,2013-04-11 06:02:00,
2013-04-10 23:12:00,48.0,-99.9,-100.00,NE,45,7.0,11.0,-999,-99.99,,,-99.99,,2013-04-11 06:12:00,
2013-04-10 23:22:00,49.0,-99.9,-100.00,NE,45,5.0,10.0,-999,-99.99,,,-99.99,,2013-04-11 06:22:00,
2013-04-10 23:32:00,49.0,-99.9,-100.00,North,0,9.0,16.0,-999,-99.99,,,-99.99,,2013-04-11 06:32:00,
2013-04-10 23:42:00,49.0,-99.9,-100.00,North,0,9.0,16.0,-999,-99.99,,,-99.99,,2013-04-11 06:42:00,
2013-04-10 23:53:00,49.0,-99.9,-100.00,NE,45,11.0,19.0,-999,-99.99,,,-99.99,,2013-04-11 06:53:00,